Location: Vancouver
(49.2827°N, 123.1207°W)
Time: 05:05:46
(UTC-07:00)

ISS - Visible Passes

Search period start: 26 September 2023 00:00
Search period end: 06 October 2023 00:00
Orbit: 413 x 421 km, 51.6° (Epoch: 26 September)

Date Brightness Start Highest point End Pass type
(mag) Time Alt. Az. Time Alt. Az. Time Alt. Az.
26 Sep -3.8 20:22:30 10° WNW 20:25:52 79° NNE 20:27:17 32° E visible
26 Sep -0.8 21:59:29 10° W 22:00:11 14° W 22:00:11 14° W visible
27 Sep -3.6 19:34:20 10° WNW 19:37:40 65° NNE 19:40:58 10° E visible
27 Sep -2.6 21:11:11 10° WNW 21:13:53 38° SW 21:13:53 38° SW visible
28 Sep -3.5 20:22:56 10° WNW 20:26:14 59° SSW 20:27:36 31° SE visible
29 Sep -3.7 19:34:40 10° WNW 19:38:01 82° SSW 19:41:19 10° ESE visible
29 Sep -1.6 21:11:54 10° W 21:14:14 20° SW 21:14:14 20° SW visible
30 Sep -2.2 20:23:20 10° W 20:26:17 29° SW 20:28:00 18° SSE visible
01 Oct -2.8 19:34:52 10° WNW 19:38:03 42° SSW 19:41:14 10° SE visible
02 Oct -1.0 20:24:13 10° WSW 20:25:58 14° SW 20:27:43 10° SSW visible
03 Oct -1.4 19:35:11 10° W 19:37:46 21° SW 19:40:19 10° SSE visible
